sat.trackr.live / text

‹ back to catalog

ONEWEB-0037

NORAD 45440 · 2020-020S

PAYLOAD ACTIVE UNKNOWN

§ Identity

Operator
Country
UK
Launch date
2020-03-21
Launch site
TYMSC
Launch vehicle
Mass (kg)
RCS (m²)

Purposes: comms

External: N2YO · Heavens-Above · Gunter

§ Orbital elements

Epoch: 2026-05-25T03:12:14.721408Z

Period
109.76 min
Inclination
87.8926°
Eccentricity
0.0001828
Mean motion
13.11909388 rev/d
Perigee alt
1,214.4 km
Apogee alt
1,217.2 km
Semi-major
7,593.9 km
B*
1.9991e-4
RAAN
25.6229°
Arg perigee
84.3194°
Mean anomaly
275.8143°
Rev number
29,967

§ Raw data

ONEWEB-00371 45440U 20020S   26145.13350372  .00000084  00000+0  19991-3 0  99962 45440  87.8926  25.6229 0001828  84.3194 275.8143 13.11909388299679

JSON: /api/v1/satellites/45440 · /tle

For live sub-satellite position, see the globe view (requires WebGL).

§ Visibility from observer

Set your observer location to see the next 7 days of passes ≥ 10°. The values pass through the URL so the page stays shareable.

No JS? Fill the form by hand. The geolocation button needs JavaScript.